Location: Vihti�l�
(61.3833°N, 23.0667°E)
Time: 05:51:28
(UTC+00:00)

CZ-2D R/B - Pass Details

Date: 29 November 2020
Orbit: 792 x 845 km, 98.7° (Epoch: 22 January)

Event Time Altitude Azimuth Distance (km) Brightness Sun altitude
Rises 01:43:09 0° 19° (NNE) 3,376 5.8 -36.7°
Reaches altitude 10° 01:45:36 10° 13° (NNE) 2,447 4.9 -36.4°
Enters shadow 01:46:52 17° 7° (N) 1,993 4.4 -36.3°
